[[{"header":{"parameterUnit":"m.s-1","parameterCategory":1,"la1":30.2991,"la2":30.254,"lo1":-89.0895,"lo2":-89.0444,"dy":0.0017,"dx":0.0017,"nx":28,"ny":28,"refTime":"2024-02-18T03:00:00:Z","depth":0,"parameterNumber":2,"parameterNumberName":"U-component_of_WINDS"},"data":[0,0,0,0,0,0,0,0,0,0,0,0,0,0,0,0,0,0,0,0,0,0,0,0,0,0,0,0,0,0,0,0,0,0,0,0,0,0,0,0,0,0,0,0,0,0,0,0,0,0,0,0,0,0,0,0,0,0,-1.8328,-1.8329,0,-1.8406,-1.8407,-1.8408,-1.8373,-1.8371,-1.8369,-1.8368,-1.8448,-1.8452,-1.8456,0,0,0,0,0,0,0,0,0,0,0,0,0,-1.8148,-1.8152,-1.8328,-1.8329,-1.833,-1.8406,-1.8407,-1.8408,-1.8374,-1.8371,-1.8369,-1.8367,-1.8447,-1.8451,-1.8456,0,0,0,0,0,0,0,0,0,0,0,0,0,-1.8226,-1.8153,-1.8327,-1.8322,-1.8322,-1.8405,-1.8407,-1.8408,-1.8374,-1.8371,-1.8368,-1.8366,-1.8445,-1.8451,-1.8457,-1.8551,0,0,-1.8475,-1.8477,0,0,0,0,0,0,0,0,-1.8222,-1.8233,-1.8322,-1.8322,-1.8323,-1.8377,-1.8373,-1.8456,-1.8375,-1.8354,-1.8368,-1.8364,-1.8427,-1.8434,-1.8455,-1.8554,-1.8558,-1.8475,-1.8479,-1.8481,-1.8483,0,0,0,0,0,0,0,-1.8216,-1.8229,-1.8359,-1.8323,-1.8324,-1.8315,-1.8323,-1.8388,-1.8406,-1.8356,-1.8354,-1.8363,-1.8426,-1.8449,-1.8456,-1.8559,-1.8475,-1.848,-1.8484,-1.8486,-1.8738,-1.8741,0,0,0,0,0,0,-1.8211,-1.8225,-1.8356,-1.8361,-1.8264,-1.832,-1.8329,-1.8362,-1.8405,-1.8409,-1.8366,-1.8361,-1.8441,-1.845,-1.8459,-1.8572,-1.8481,-1.8487,-1.849,-1.8735,-1.8739,-1.8742,0,0,0,0,0,0,-1.8207,-1.8223,-1.8353,-1.8292,-1.8308,-1.8327,-1.8364,-1.8365,-1.8388,-1.8412,-1.8415,-1.8386,-1.8439,-1.8451,-1.8528,-1.8574,-1.8489,-1.8495,-1.8731,-1.8736,-1.8741,-1.8798,0,0,0,0,0,0,-1.8202,-1.8222,-1.8258,-1.8293,-1.8312,-1.8421,-1.8367,-1.8369,-1.8398,-1.8394,-1.8432,-1.8436,-1.8437,-1.8519,-1.8534,-1.8581,-1.8499,-1.8727,-1.8734,-1.8739,-1.8792,-1.8804,-1.8814,0,0,0,0,0,-1.8196,-1.8272,-1.826,-1.8276,-1.8357,-1.8424,-1.8434,-1.8434,-1.8402,-1.8439,-1.8454,-1.8434,-1.8566,-1.8527,-1.8543,-1.8593,-1.8725,-1.8732,-1.8739,-1.8787,-1.8802,-1.8814,0,0,0,0,0,0,-1.8242,-1.8276,-1.8264,-1.8353,-1.8386,-1.8418,-1.8464,-1.845,-1.8493,-1.8486,-1.8485,-1.8494,-1.8573,-1.859,-1.8547,-1.8685,-1.864,-1.8651,-1.8672,-1.8686,-1.8697,-1.8692,-1.8504,0,0,0,0,0,-1.8262,-1.8313,-1.834,-1.8416,-1.8433,-1.8446,-1.8475,-1.8472,-1.8506,-1.8519,-1.854,-1.8574,-1.8622,-1.8655,-1.8701,-1.8794,-1.8801,-1.8835,-1.8846,-1.8855,-1.8865,-1.8915,-1.893,-1.8766,-1.8766,-1.8766,0,0,-1.8305,-1.833,-1.8363,-1.8426,-1.8451,-1.8504,-1.8458,-1.8516,-1.8555,-1.8528,-1.8602,-1.8618,-1.8655,-1.8741,-1.8779,-1.8757,-1.8912,-1.8865,-1.8872,-1.8877,-1.8924,-1.8939,-1.8953,-1.8771,-1.877,-1.8769,0,0,-1.8411,-1.8435,-1.85,-1.8526,-1.8564,-1.8571,-1.8587,-1.8621,-1.8631,-1.8705,-1.8686,-1.8731,-1.8816,-1.8843,-1.8868,-1.8981,-1.8965,-1.8996,-1.9055,-1.9104,-1.9117,-1.9128,-1.9169,-1.9184,-1.9005,-1.9006,-1.9006,0,-1.846,-1.8539,-1.8536,-1.8596,-1.8624,-1.8601,-1.8668,-1.8692,-1.8744,-1.8764,-1.8738,-1.8843,-1.8866,-1.8957,-1.8984,-1.9005,-1.9023,-1.8993,-1.9115,-1.9127,-1.9137,-1.9176,-1.9192,-1.9009,-1.9009,-1.9008,-1.9008,0,-1.8597,-1.8652,-1.87,-1.875,-1.8783,-1.8846,-1.8853,-1.8887,-1.888,-1.889,-1.8965,-1.8992,-1.9043,-1.9064,-1.9059,-1.9154,-1.914,-1.9115,-1.907,-1.9157,-1.9193,-1.9208,-1.9014,-1.9013,-1.9012,-1.9011,0,0,-1.8736,-1.8782,-1.88,-1.8822,-1.8861,-1.8903,-1.8964,-1.9014,-1.9043,-1.9078,-1.913,-1.92,-1.9177,-1.9205,-1.9202,-1.9245,-1.9333,-1.9214,-1.9215,-1.9236,-1.944,-1.9459,-1.9477,-1.9321,-1.9324,-1.9327,-1.9437,0,-1.8845,-1.8952,-1.8951,-1.905,-1.9101,-1.9078,-1.9131,-1.9161,-1.9171,-1.9215,-1.9226,-1.9277,-1.9242,-1.9259,-1.93,-1.9314,-1.9374,-1.9305,-1.937,-1.9372,-1.9362,-1.9496,-1.9517,-1.962,-1.9451,-1.9453,-1.9455,0,-1.8987,-1.9027,-1.9131,-1.9162,-1.9183,-1.9231,-1.9276,-1.9318,-1.935,-1.9355,-1.9385,-1.9375,-1.9437,-1.9388,-1.9473,-1.9426,-1.9452,-1.9462,-1.9466,-1.9474,-1.942,-1.9508,-1.9653,-1.9668,-1.9478,-1.9476,-1.9474,0,-1.9079,-1.9158,-1.9231,-1.925,-1.9288,-1.9322,-1.9339,-1.9368,-1.9398,-1.9437,-1.9456,-1.9501,-1.9526,-1.9561,-1.9563,-1.9528,-1.9649,-1.9601,-1.9654,-1.9654,-1.9682,-1.9681,-1.9835,-1.9697,-1.9696,-1.9696,-1.9696,0,-1.9202,-1.9267,-1.9272,-1.9317,-1.9389,-1.9386,-1.9457,-1.9471,-1.9497,-1.9544,-1.9527,-1.9571,-1.957,-1.9615,-1.9617,-1.9687,-1.9698,-1.9703,-1.9703,-1.9706,-1.9705,-1.9724,-1.9717,-1.97,-1.9699,-1.9699,-1.9698,0,-1.9318,-1.9324,-1.9402,-1.943,-1.9439,-1.949,-1.9515,-1.9557,-1.9565,-1.9624,-1.9638,-1.965,-1.9702,-1.9707,-1.9767,-1.9768,-1.9853,-1.9844,-1.9842,-1.9841,-1.9895,-1.989,-2.0067,-2.009,-1.9936,-1.9937,-1.9939,0,-1.9396,-1.9446,-1.9479,-1.9509,-1.9528,-1.9577,-1.9606,-1.9604,-1.9636,-1.9676,-1.9713,-1.9763,-1.9803,-1.9887,-1.9901,-1.9946,-1.994,-1.9998,-1.9947,-1.9947,-1.9942,-1.9939,-1.9944,-2.0009,-2.0011,-2.0012,-2.0013,0,-1.9536,-1.9536,-1.9579,-1.9624,-1.966,-1.9695,-1.9727,-1.9753,-1.9755,-1.9791,-1.9843,-1.9874,-1.9935,-1.9985,-2.0029,-2.0046,-2.0031,-2.0029,-2.0044,-2.0048,-2.0045,-2.0048,-1.9871,-2.0026,-2.0024,-2.0024,-2.0023,-2.0022,-1.9636,-1.9679,-1.9709,-1.9757,-1.9781,-1.9812,-1.9853,-1.9865,-1.9909,-1.9958,-1.9954,-2.0012,-2.0042,-2.01,-2.012,-2.0165,-2.0145,-2.0167,-2.0172,-2.0178,-2.0184,-2.0036,-2.0173,-2.0172,-2.0172,-2.0172,-2.0171,0,-1.9775,-1.9793,-1.9838,-1.9884,-1.9922,-1.9902,-1.9937,-1.997,-2.0021,-2.005,-2.0089,-2.0149,-2.0197,-2.0214,-2.026,-2.0293,-2.0287,-2.0305,-2.0303,-2.0308,-2.0199,-2.0181,-2.0309,-2.0309,-2.0309,-2.0309,-2.0309,-2.0309,-1.9852,-1.9923,-1.9927,-2.0009,-2.0026,-2.0083,-2.0104,-2.0132,-2.0155,-2.0222,-2.0262,-2.0272,-2.0296,-2.0344,-2.0386,-2.039,-2.0408,-2.043,-2.0431,-2.0329,-2.0315,-2.0302,-2.0286,-2.0434,-2.0434,-2.0536,-2.0537,-2.0538]},{"header":{"parameterUnit":"m.s-1","parameterCategory":1,"la1":30.2991,"la2":30.254,"lo1":-89.0895,"lo2":-89.0444,"dy":0.0017,"dx":0.0017,"nx":28,"ny":28,"refTime":"2024-02-18T03:00:00:Z","depth":0,"parameterNumber":3,"parameterNumberName":"V-component_of_WINDS"},"data":[0,0,0,0,0,0,0,0,0,0,0,0,0,0,0,0,0,0,0,0,0,0,0,0,0,0,0,0,0,0,0,0,0,0,0,0,0,0,0,0,0,0,0,0,0,0,0,0,0,0,0,0,0,0,0,0,0,0,-7.7069,-7.707,0,-7.7195,-7.7196,-7.7198,-7.7104,-7.71,-7.7096,-7.7092,-7.7216,-7.7223,-7.723,0,0,0,0,0,0,0,0,0,0,0,0,0,-7.674,-7.6747,-7.7069,-7.707,-7.7072,-7.7195,-7.7196,-7.7198,-7.7105,-7.71,-7.7095,-7.7091,-7.7213,-7.7222,-7.723,0,0,0,0,0,0,0,0,0,0,0,0,0,-7.6876,-7.6749,-7.7068,-7.704,-7.7039,-7.7194,-7.7197,-7.7199,-7.7106,-7.71,-7.7094,-7.7088,-7.7211,-7.7221,-7.7231,-7.7419,0,0,-7.7264,-7.7268,0,0,0,0,0,0,0,0,-7.6869,-7.6888,-7.7043,-7.7043,-7.7041,-7.7128,-7.7126,-7.7272,-7.7108,-7.7081,-7.7092,-7.7085,-7.7191,-7.7203,-7.724,-7.7425,-7.743,-7.7265,-7.7271,-7.7276,-7.7279,0,0,0,0,0,0,0,-7.6859,-7.6882,-7.7118,-7.7045,-7.7044,-7.7019,-7.7032,-7.7153,-7.7168,-7.7082,-7.7076,-7.7093,-7.7189,-7.723,-7.7242,-7.7432,-7.7264,-7.7274,-7.728,-7.7285,-7.7776,-7.7783,0,0,0,0,0,0,-7.6854,-7.6875,-7.7114,-7.7122,-7.6939,-7.703,-7.7044,-7.7106,-7.7167,-7.717,-7.7098,-7.7088,-7.7215,-7.723,-7.7246,-7.747,-7.7276,-7.7286,-7.7292,-7.777,-7.7778,-7.7785,0,0,0,0,0,0,-7.6847,-7.6876,-7.7109,-7.6997,-7.7025,-7.7042,-7.7113,-7.7112,-7.7152,-7.7178,-7.718,-7.7137,-7.721,-7.7231,-7.7377,-7.7472,-7.729,-7.73,-7.7762,-7.7772,-7.7782,-7.7919,0,0,0,0,0,0,-7.6838,-7.6874,-7.6947,-7.7,-7.7031,-7.7241,-7.7119,-7.7119,-7.7172,-7.716,-7.7215,-7.7219,-7.7207,-7.7362,-7.7388,-7.7484,-7.7308,-7.7753,-7.7766,-7.7778,-7.7906,-7.7932,-7.7955,0,0,0,0,0,-7.6826,-7.698,-7.6951,-7.6981,-7.7124,-7.7247,-7.7264,-7.725,-7.718,-7.7252,-7.7269,-7.7217,-7.7458,-7.7377,-7.7406,-7.7507,-7.7747,-7.7763,-7.7777,-7.7895,-7.7927,-7.7954,0,0,0,0,0,0,-7.6936,-7.6986,-7.6955,-7.713,-7.7185,-7.7231,-7.7322,-7.7285,-7.7359,-7.7345,-7.7321,-7.7335,-7.7488,-7.7512,-7.7421,-7.7691,-7.7591,-7.7612,-7.7671,-7.7701,-7.7726,-7.7717,-7.7317,0,0,0,0,0,-7.6981,-7.7079,-7.7116,-7.7267,-7.7296,-7.7305,-7.7358,-7.7342,-7.7397,-7.7419,-7.7446,-7.75,-7.7587,-7.7645,-7.7727,-7.7908,-7.7918,-7.7991,-7.8016,-7.8036,-7.8055,-7.8151,-7.8184,-7.7835,-7.7834,-7.7834,0,0,-7.7074,-7.7113,-7.7176,-7.729,-7.733,-7.743,-7.7325,-7.7435,-7.7508,-7.7435,-7.7575,-7.7597,-7.7655,-7.7819,-7.7893,-7.7844,-7.8154,-7.8055,-7.8071,-7.8079,-7.817,-7.8203,-7.8233,-7.7845,-7.7843,-7.7841,0,0,-7.7294,-7.7335,-7.7465,-7.7508,-7.7571,-7.7576,-7.7607,-7.7659,-7.7671,-7.7812,-7.7759,-7.7844,-7.7996,-7.804,-7.8082,-7.8319,-7.8273,-7.8346,-7.8474,-7.8568,-7.8596,-7.862,-7.8704,-7.8735,-7.8364,-7.8365,-7.8365,0,-7.7401,-7.7552,-7.7535,-7.765,-7.7701,-7.7641,-7.7772,-7.7813,-7.79,-7.7936,-7.7879,-7.8069,-7.8103,-7.8277,-7.8335,-7.8371,-7.8404,-7.8339,-7.8594,-7.8618,-7.864,-7.872,-7.8752,-7.8373,-7.8372,-7.8371,-7.837,0,-7.768,-7.7785,-7.7882,-7.797,-7.8031,-7.8153,-7.8153,-7.8217,-7.8196,-7.8206,-7.8349,-7.8389,-7.8478,-7.8517,-7.8497,-7.8688,-7.8655,-7.8597,-7.8496,-7.8682,-7.8757,-7.8788,-7.8385,-7.8382,-7.8379,-7.8377,0,0,-7.7974,-7.8051,-7.8087,-7.8126,-7.8191,-7.8271,-7.8389,-7.8478,-7.8533,-7.8594,-7.8692,-7.8822,-7.8768,-7.8816,-7.8799,-7.8882,-7.9067,-7.8813,-7.8814,-7.8859,-7.9279,-7.9323,-7.9359,-7.9037,-7.9043,-7.9047,-7.9274,0,-7.8198,-7.8407,-7.8395,-7.859,-7.8686,-7.863,-7.8733,-7.8783,-7.8796,-7.8877,-7.8889,-7.8982,-7.8904,-7.8933,-7.9012,-7.9028,-7.9151,-7.9011,-7.9126,-7.913,-7.9114,-7.9398,-7.9445,-7.9657,-7.9303,-7.9308,-7.9312,0,-7.8487,-7.8561,-7.8767,-7.8818,-7.8857,-7.8951,-7.9031,-7.911,-7.9165,-7.9168,-7.9222,-7.9191,-7.9308,-7.9205,-7.9365,-7.927,-7.9316,-7.9331,-7.9338,-7.9349,-7.9233,-7.9416,-7.9724,-7.9756,-7.9358,-7.9354,-7.9351,0,-7.8681,-7.8831,-7.8973,-7.9008,-7.9071,-7.9138,-7.9167,-7.9216,-7.927,-7.9339,-7.9374,-7.9455,-7.95,-7.9562,-7.9554,-7.9479,-7.9717,-7.9612,-7.9721,-7.9722,-7.9774,-7.9771,-8.0094,-7.9804,-7.9803,-7.9803,-7.9802,0,-7.8933,-7.906,-7.9061,-7.9149,-7.929,-7.9274,-7.9413,-7.9434,-7.9478,-7.9567,-7.9523,-7.9607,-7.9591,-7.9674,-7.9667,-7.9801,-7.9821,-7.9825,-7.9822,-7.983,-7.9829,-7.986,-7.9845,-7.9811,-7.9809,-7.9808,-7.9806,0,-7.9173,-7.9179,-7.933,-7.9378,-7.9393,-7.9495,-7.9534,-7.9616,-7.9624,-7.9738,-7.9763,-7.9776,-7.9871,-7.9869,-7.9977,-7.9973,-8.0137,-8.0116,-8.0119,-8.0115,-8.0224,-8.0214,-8.0578,-8.0625,-8.0304,-8.0307,-8.031,0,-7.9333,-7.9431,-7.949,-7.9547,-7.9581,-7.9674,-7.973,-7.9717,-7.9776,-7.9846,-7.9919,-8.0011,-8.0084,-8.0239,-8.0256,-8.0338,-8.0319,-8.0441,-8.0331,-8.0336,-8.0321,-8.0316,-8.0325,-8.0463,-8.0467,-8.047,-8.0472,0,-7.9617,-7.9616,-7.9699,-7.9783,-7.9851,-7.9917,-7.9976,-8.0025,-8.0019,-8.0087,-8.0186,-8.0243,-8.0354,-8.0445,-8.0524,-8.055,-8.0511,-8.0507,-8.0536,-8.0545,-8.0543,-8.0545,-8.0178,-8.0498,-8.0496,-8.0494,-8.0492,-8.0491,-7.9823,-7.9907,-7.9961,-8.0055,-8.0099,-8.0156,-8.0236,-8.0255,-8.0337,-8.0428,-8.0415,-8.0525,-8.0575,-8.0678,-8.0712,-8.0796,-8.0752,-8.0795,-8.0806,-8.0817,-8.0829,-8.0529,-8.081,-8.0809,-8.0808,-8.0808,-8.0807,0,-8.0104,-8.0137,-8.0224,-8.031,-8.0383,-8.0341,-8.0405,-8.0468,-8.0566,-8.0618,-8.0691,-8.0804,-8.0892,-8.0917,-8.1001,-8.1064,-8.1047,-8.1086,-8.1081,-8.1088,-8.0863,-8.0829,-8.1098,-8.1098,-8.1098,-8.1098,-8.1098,-8.1098,-8.026,-8.04,-8.0404,-8.0564,-8.0595,-8.0705,-8.0745,-8.0796,-8.0838,-8.0966,-8.104,-8.1056,-8.1097,-8.1184,-8.1262,-8.1266,-8.1299,-8.1346,-8.1344,-8.1133,-8.1104,-8.1076,-8.1044,-8.1354,-8.1354,-8.1561,-8.1563,-8.1565]}]]